ARIANE 5 R/B, 45248

Orbit data source: Space-Track

ARIANE 5 R/B, 45248 is space debris in HEO originally from a launch on Tue, 18 Feb 2020 UTC launched from the French Guiana (FRGUI). Debris objects in space refer to the collection of defunct objects orbiting the Earth. Examples of debris include non-operational satellites, rocket bodies, and fragments generated from explosions, collisions, or faulty payload assembly.

Loading next visibility...
Identifier
45248, 2020-013D
Orbit
HEO
Country
Flag of FRFR
Related business
Manufacturer
ArianeGroup
Mission
Spacecraft
Bus & Motor
ESC-A, Unknown motor
Mass
~5,000 kg wet, ~5,000 kg dry
Launch date (UTC)
2020-02-18 (6 years ago)
Launch vehicle
Unknown
Launch site
French Guiana (FRGUI)
Object type
Payload
Rocket body
Debris
Shape & HBR
Cyl + 1 Nozzle, 3.5 m
Radar Cross Section
41.627 m², Large (>1 m²)

Expand to show TLE details & history
Last TLE update: 18 hours ago

TLE from 18 hours ago
0 ARIANE 5 R/B
1 45248U 20013D   26121.50852625  .00002543  00000-0  11119-2 0  9993
2 45248   5.7894  50.8136 7143073 314.0239   6.0410  2.44174304 53376
Epoch: 2026-05-01T12:12Z
TLE epoch observation values (Epoch: 2026-05-01T12:12:16.667Z)
Latitude
-0.00031°
Longitude
8.26222°
Altitude
1,230.671 km
Speed
9.362 km/s
True Right ascension
03h 23m 05s
True Declination
0° 00' 01"
Sunlit
Object was in daylight at epoch
Visualization orbit readout
Latitude
Unknown
Longitude
Unknown
Altitude
Unknown
Speed
Unknown
Apparent Right ascension
Unknown
Apparent Declination
Unknown
Sunlit
N/A
Visualization observer readout
Local Sidereal Time
13:22:58
Azimuth
Unknown
Elevation
Unknown
Doppler factor
Unknown
Orbital elements
Apogee altitude
33,566.524 km
Perigee altitude
278.72 km
Semi-major axis
23,300.759 km
Eccentricity
0.71431
Inclination
5.7894°
RAAN
50.8136°
Arg. of periapsis
314.0239°
True anomaly
46.97269°
Mean anomaly
6.041°
Eccentric anomaly
20.11789°
Mean motion
0.61022 °/min
Orbital period
589.95 mins
BSTAR
0.0011119
Loading maneuver chart data...
Computing Atmospheric mass density...
Loading historical data...
Loading historical data...
Loading historical data...
Loading historical data...
Loading historical data...
Loading historical data...
Loading historical data...
Other satellites on launch #13 in the year 2020 (2020-02-18 UTC)

Documentation

Showing up to 5 results
|